Location: *
(32.8140°S, 174.6161°E)
Time: 15:02:13
(UTC+00:00)

Cosmos 2082 - Pass Details

Date: 10 December 2019
Orbit: 834 x 855 km, 71.0° (Epoch: 27 January)

Event Time Altitude Azimuth Distance (km) Brightness Sun altitude
Rises 14:07:02 0° 203° (SSW) 3,450 7.4 -28.1°
Reaches altitude 10° 14:09:31 10° 205° (SSW) 2,505 6.5 -27.9°
Enters shadow 14:14:49 68° 255° (WSW) 918 3.7 -27.3°
